This demonstration page uses our WeatherBlox Daily Observations layout. Learn more.

Left ArrowRight Arrow

39.95238, -75.16362

Hourly Observations for August 24, 2022

Temp ( °F °C ) Dew Point ( °F °C ) Humidity (%) Winds ( mph kmh ) Pressure ( in mb ) Visibility ( mi km ) Precip ( " mm )
12:54 am 00:54 Clear 77 25 65 18.3 66 66 NNW 5 7 29.92 1013 10 16 0.00 0.00
1:54 am 01:54 Clear 75 23.9 65 18.3 71 71 NNW 6 9 29.92 1013 10 16 0.00 0.00
2:54 am 02:54 Clear 74 23.3 65 18.3 74 74 Calm 29.93 1014 10 16 0.00 0.00
3:54 am 03:54 Clear 74 23.3 66 18.9 76 76 Calm 29.93 1014 10 16 0.00 0.00
4:54 am 04:54 Mostly Clear 73 22.8 66 18.9 79 79 Calm 29.94 1014 10 16 0.00 0.00
5:54 am 05:54 Mostly Clear 74 23.3 66 18.9 76 76 Calm 29.95 1014 10 16 0.00 0.00
6:54 am 06:54 Partly Cloudy 73 22.8 66 18.9 79 79 WSW 6 9 29.97 1015 10 16 0.00 0.00
7:54 am 07:54 Mostly Sunny 75 23.9 66 18.9 74 74 Calm 29.98 1015 10 16 0.00 0.00
8:54 am 08:54 Mostly Sunny 79 26.1 66 18.9 65 65 WNW 6 9 29.99 1016 10 16 0.00 0.00
9:54 am 09:54 Mostly Sunny 82 27.8 64 17.8 55 55 N 5 7 30.01 1016 10 16 0.00 0.00
10:54 am 10:54 Partly Cloudy 83 28.3 65 18.3 55 55 VRB 7 11 30.01 1016 10 16 0.00 0.00
11:54 am 11:54 Mostly Sunny 85 29.4 60 15.6 43 43 W 9 15 30.00 1016 10 16 0.00 0.00
12:54 pm 12:54 Partly Cloudy 87 30.6 58 14.4 37 37 WSW 7 11 29.99 1016 10 16 0.00 0.00
1:54 pm 13:54 Partly Cloudy 90 32.2 59 15 35 35 W 10 17 29.98 1015 10 16 0.00 0.00
2:54 pm 14:54 Partly Cloudy 89 31.7 57 13.9 34 34 NW 10 17 29.97 1015 10 16 0.00 0.00
3:54 pm 15:54 Partly Cloudy 90 32.2 60 15.6 37 37 WNW 13 20 29.97 1015 10 16 0.00 0.00
4:54 pm 16:54 Partly Cloudy 89 31.7 61 16.1 39 39 W 13 20 29.96 1015 10 16 0.00 0.00
5:54 pm 17:54 Mostly Sunny 88 31.1 60 15.6 39 39 W 14 22 29.97 1015 10 16 0.00 0.00
6:54 pm 18:54 Mostly Sunny 87 30.6 60 15.6 40 40 W 12 19 29.97 1015 10 16 0.00 0.00
7:54 pm 19:54 Clear 85 29.4 59 15 42 42 W 10 17 29.98 1015 10 16 0.00 0.00
8:54 pm 20:54 Clear 84 28.9 61 16.1 46 46 W 8 13 29.99 1016 10 16 0.00 0.00
9:54 pm 21:54 Clear 81 27.2 63 17.2 54 54 WSW 6 9 30.00 1016 10 16 0.00 0.00
10:54 pm 22:54 Clear 78 25.6 64 17.8 62 62 Calm 30.01 1016 10 16 0.00 0.00
11:54 pm 23:54 Partly Cloudy 78 25.6 61 16.1 56 56 WSW 8 13 30.03 1017 10 16 0.00 0.00

Powered by AerisWeather